Weather History for KW29 - August, 2014

Change the Weather History Date:

Thursday, August 21, 2014

  Actual Average (KESN) Record (KESN)
Temperature  
Mean Temperature 78 °F -  
Max Temperature 86 °F 85 °F 96 °F (1962)
Min Temperature 69 °F 62 °F 50 °F (1976)
Cooling Degree Days 12    
Growing Degree Days 28 (Base 50)    
Moisture  
Dew Point 69 °F    
Average Humidity 77    
Maximum Humidity 100    
Minimum Humidity 55    
Precipitation  
Precipitation 0.00 in - - ()
Sea Level Pressure  
Sea Level Pressure 30.01 in    
Wind  
Wind Speed 4 mph (SSE)    
Max Wind Speed 8 mph    
Max Gust Speed -    
Visibility 10 miles    
Events      
Averages and records for this station are not official NWS values.
T = Trace of Precipitation, MM = Missing Value Source: NWS Daily Summary

Daily Weather History Graph

Daily Weather History Graph

Search for Another Location

Airport or City:

Trip Planner

Search our weather history database for the weather conditions in past years. The results will help you decide how hot, cold, wet, or windy it might be!

Date:

Astronomy

Aug. 21, 2014 Rise Set
Actual Time 6:24 AM EDT 7:51 PM EDT
Civil Twilight 5:56 AM EDT 8:19 PM EDT
Nautical Twilight 5:22 AM EDT 8:53 PM EDT
Astronomical Twilight 4:46 AM EDT 9:29 PM EDT
Moon 2:53 AM EDT (8/21) 5:18 PM EDT (8/21)
Length of Visible Light 14h 23m
Length of Day
13h 27m
Waning Crescent, 13% of the Moon is Illuminated
Aug 21
Waning Crescent
Aug 25
New
Sep 2
First Quarter
Sep 8
Full
Sep 15
Last Quarter

Hourly Weather History & Observations

Time (EDT) Temp. Heat Index Dew Point Humidity Pressure Visibility Wind Dir Wind Speed Gust Speed Precip Events Conditions
12:15 AM 73.4 °F - 62.6 °F 69% 30.03 in 10.0 mi SE 8.1 mph - N/A   Unknown
12:35 AM 73.4 °F - 62.6 °F 69% 30.02 in 10.0 mi SE 6.9 mph - N/A   Unknown
12:55 AM 71.6 °F - 62.6 °F 73% 30.02 in 10.0 mi ESE 4.6 mph - N/A   Unknown
1:15 AM 71.6 °F - 64.4 °F 78% 30.01 in 10.0 mi SE 4.6 mph - N/A   Unknown
1:35 AM 71.6 °F - 64.4 °F 78% 30.01 in 10.0 mi SE 5.8 mph - N/A   Unknown
1:55 AM 71.6 °F - 64.4 °F 78% 30.01 in 10.0 mi SE 6.9 mph - N/A   Unknown
2:15 AM 71.6 °F - 64.4 °F 78% 30.01 in 10.0 mi SE 3.5 mph - N/A   Unknown
2:35 AM 71.6 °F - 66.2 °F 83% 30.00 in 10.0 mi SE 4.6 mph - N/A   Unknown
2:55 AM 71.6 °F - 68.0 °F 88% 30.00 in 10.0 mi SE 4.6 mph - N/A   Unknown
3:15 AM 71.6 °F - 68.0 °F 88% 30.00 in 10.0 mi ESE 3.5 mph - N/A   Unknown
3:35 AM 71.6 °F - 68.0 °F 88% 30.00 in 10.0 mi SSE 3.5 mph - N/A   Unknown
3:55 AM 71.6 °F - 68.0 °F 88% 30.00 in 10.0 mi SE 3.5 mph - N/A   Unknown
4:15 AM 71.6 °F - 68.0 °F 88% 30.00 in 10.0 mi SSE 4.6 mph - N/A   Unknown
4:35 AM 71.6 °F - 68.0 °F 88% 30.00 in 10.0 mi SSE 4.6 mph - N/A   Unknown
4:55 AM 71.6 °F - 69.8 °F 94% 30.00 in 10.0 mi SSE 5.8 mph - N/A   Unknown
5:15 AM 71.6 °F - 69.8 °F 94% 30.00 in 10.0 mi SE 3.5 mph - N/A   Unknown
5:36 AM 71.6 °F - 68.0 °F 88% 30.01 in 10.0 mi ESE 3.5 mph - N/A   Unknown
5:56 AM 69.8 °F - 69.8 °F 100% 30.01 in 10.0 mi East 3.5 mph - N/A   Unknown
6:16 AM 69.8 °F - 68.0 °F 94% 30.02 in 10.0 mi East 3.5 mph - N/A   Unknown
6:36 AM 71.6 °F - 68.0 °F 88% 30.02 in 10.0 mi ESE 3.5 mph - N/A   Unknown
6:56 AM 71.6 °F - 68.0 °F 88% 30.03 in 10.0 mi ESE 4.6 mph - N/A   Unknown
7:16 AM 69.8 °F - 68.0 °F 94% 30.03 in 10.0 mi SE 5.8 mph - N/A   Unknown
7:36 AM 71.6 °F - 68.0 °F 88% 30.04 in 10.0 mi SE 3.5 mph - N/A   Unknown
7:56 AM 71.6 °F - 68.0 °F 88% 30.04 in 10.0 mi SE 6.9 mph - N/A   Unknown
8:16 AM 73.4 °F - 69.8 °F 88% 30.05 in 10.0 mi SSE 3.5 mph - N/A   Unknown
8:36 AM 73.4 °F - 69.8 °F 88% 30.05 in 10.0 mi SSW 3.5 mph - N/A   Unknown
8:56 AM 73.4 °F - 69.8 °F 88% 30.05 in 10.0 mi South 4.6 mph - N/A   Unknown
9:16 AM 75.2 °F - 69.8 °F 83% 30.05 in 10.0 mi SSE 3.5 mph - N/A   Unknown
9:56 AM 77.0 °F - 69.8 °F 78% 30.04 in 10.0 mi Calm Calm - N/A   Unknown
10:16 AM 78.8 °F - 69.8 °F 74% 30.04 in 10.0 mi West 3.5 mph - N/A   Unknown
10:36 AM 77.0 °F - 71.6 °F 83% 30.05 in 10.0 mi West 8.1 mph - N/A   Unknown
10:56 AM 77.0 °F - 69.8 °F 78% 30.05 in 10.0 mi West 4.6 mph - N/A   Unknown
11:16 AM 77.0 °F - 69.8 °F 78% 30.05 in 10.0 mi West 4.6 mph - N/A   Unknown
11:36 AM 78.8 °F - 69.8 °F 74% 30.04 in 10.0 mi West 5.8 mph - N/A   Unknown
11:56 AM 80.6 °F 83.9 °F 69.8 °F 70% 30.04 in 10.0 mi Calm Calm - N/A   Unknown
12:16 PM 80.6 °F 83.9 °F 69.8 °F 70% 30.04 in 10.0 mi West 5.8 mph - N/A   Unknown
12:36 PM 80.6 °F 83.2 °F 68.0 °F 65% 30.03 in 10.0 mi South 3.5 mph - N/A   Unknown
1:16 PM 82.4 °F 85.4 °F 68.0 °F 62% 30.02 in 10.0 mi South 3.5 mph - N/A   Unknown
1:36 PM 80.6 °F 83.9 °F 69.8 °F 70% 30.02 in 10.0 mi Calm Calm - N/A   Unknown
1:56 PM 82.4 °F 86.3 °F 69.8 °F 66% 30.01 in 10.0 mi SSW 3.5 mph - N/A   Unknown
2:17 PM 82.4 °F 85.4 °F 68.0 °F 62% 30.02 in 10.0 mi SSW 3.5 mph - N/A   Unknown
2:37 PM 84.2 °F 88.4 °F 69.8 °F 62% 30.01 in 10.0 mi Calm Calm - N/A   Unknown
2:57 PM 84.2 °F 87.3 °F 68.0 °F 58% 30.01 in 10.0 mi Calm Calm - N/A   Unknown
3:17 PM 86.0 °F 90.4 °F 69.8 °F 58% 30.00 in 10.0 mi Calm Calm - N/A   Unknown
3:37 PM 86.0 °F 89.4 °F 68.0 °F 55% 29.99 in 10.0 mi SSE 5.8 mph - N/A   Unknown
3:57 PM 84.2 °F 87.3 °F 68.0 °F 58% 29.99 in 10.0 mi SSE 5.8 mph - N/A   Unknown
4:17 PM 82.4 °F 85.4 °F 68.0 °F 62% 29.99 in 10.0 mi SSE 5.8 mph - N/A   Unknown
4:37 PM 82.4 °F 85.4 °F 68.0 °F 62% 29.99 in 10.0 mi ESE 4.6 mph - N/A   Unknown
4:57 PM 82.4 °F 85.4 °F 68.0 °F 62% 29.99 in 10.0 mi ESE 4.6 mph - N/A   Unknown
5:17 PM 82.4 °F 85.4 °F 68.0 °F 62% 29.98 in 10.0 mi SE 4.6 mph - N/A   Unknown
5:37 PM 82.4 °F 85.4 °F 68.0 °F 62% 29.99 in 10.0 mi SSE 3.5 mph - N/A   Unknown
5:57 PM 82.4 °F 85.4 °F 68.0 °F 62% 29.99 in 10.0 mi Calm Calm - N/A   Unknown
6:17 PM 82.4 °F 86.3 °F 69.8 °F 66% 29.98 in 10.0 mi South 3.5 mph - N/A   Unknown
6:37 PM 80.6 °F 83.9 °F 69.8 °F 70% 29.99 in 10.0 mi SSW 3.5 mph - N/A   Unknown
6:57 PM 80.6 °F 84.6 °F 71.6 °F 74% 29.99 in 10.0 mi SSW 3.5 mph - N/A   Unknown
7:17 PM 80.6 °F 84.6 °F 71.6 °F 74% 29.98 in 10.0 mi South 3.5 mph - N/A   Unknown
7:37 PM 80.6 °F 84.6 °F 71.6 °F 74% 29.98 in 10.0 mi South 4.6 mph - N/A   Unknown
7:57 PM 78.8 °F - 71.6 °F 78% 29.99 in 10.0 mi Calm Calm - N/A   Unknown
8:17 PM 78.8 °F - 71.6 °F 78% 29.98 in 10.0 mi SE 3.5 mph - N/A   Unknown
8:37 PM 78.8 °F - 73.4 °F 83% 29.98 in 10.0 mi South 3.5 mph - N/A   Unknown
8:57 PM 78.8 °F - 73.4 °F 83% 29.98 in 10.0 mi SSE 3.5 mph - N/A   Unknown
9:17 PM 78.8 °F - 73.4 °F 83% 29.98 in 10.0 mi SE 3.5 mph - N/A   Unknown
9:37 PM 78.8 °F - 71.6 °F 78% 29.99 in 10.0 mi Calm Calm - N/A   Unknown
9:57 PM 78.8 °F - 71.6 °F 78% 29.98 in 10.0 mi South 4.6 mph - N/A   Unknown
10:37 PM 78.8 °F - 71.6 °F 78% 29.99 in 10.0 mi Calm Calm - N/A   Unknown
10:58 PM 78.8 °F - 71.6 °F 78% 29.99 in 10.0 mi Calm Calm - N/A   Unknown
11:18 PM 77.0 °F - 73.4 °F 89% 29.98 in 10.0 mi Calm Calm - N/A   Unknown
11:38 PM 77.0 °F - 73.4 °F 89% 29.98 in 10.0 mi Calm Calm - N/A   Unknown